RH
18 20 23 22 22 23 24 23 20 22 23 22 24 25 24 23 22 18 18 23 22 20 23 24 23 24 24 23 20 19 19 19 19 17 17 17 17 18 19 19 19 21 22 22 22 23 25 27 27 29 31 32 34 35 35 35 34 34 34 34 35 35 35 34 32 31 31 31 31 31 31 31 31 32 32 33 35 37 38 40 41 43 45 47 47 48
19 19 22 21 21 21 21 22 20 20 22 22 22 22 22 21 20 17 18 24 23 21 23 23 23 25 26 26 23 21 21 22 21 18 18 19 20 22 22 22 22 23 23 22 23 24 25 27 28 29 31 32 34 33 33 33 33 35 36 36 35 35 34 33 32 32 31 31 31 30 30 31 32 33 33 34 34 36 38 41 42 45 49 51 51 51
20 18 20 21 21 21 22 24 22 21 22 22 22 21 20 19 20 20 21 23 22 21 23 24 25 26 29 28 23 22 22 21 21 18 18 20 21 24 25 23 23 22 22 23 25 27 28 30 31 31 32 34 35 36 36 36 37 37 37 36 35 35 34 33 33 33 33 33 33 33 32 33 33 34 35 35 36 37 39 41 44 48 52 54 54 54
18 17 18 20 21 19 21 24 23 22 21 20 20 20 19 19 20 21 21 21 21 21 24 24 24 25 27 25 21 20 20 19 20 20 19 21 21 23 25 23 23 24 25 26 27 29 30 32 32 32 33 34 36 38 38 38 37 37 36 35 34 34 34 35 35 36 37 38 39 39 38 38 38 39 40 41 41 40 40 42 45 49 53 56 56 57
18 17 17 20 23 21 19 23 22 20 19 20 21 18 18 20 21 22 22 22 21 23 25 24 22 22 22 23 23 21 21 21 21 22 22 23 22 23 23 23 24 27 28 28 29 30 31 32 31 31 32 33 34 35 35 35 35 35 35 37 38 39 40 42 44 45 47 48 48 49 49 50 50 49 50 51 52 50 47 47 48 50 54 56 58 60
18 17 17 20 24 24 20 21 20 19 20 21 22 20 18 20 22 24 25 23 21 22 23 24 24 22 20 22 24 24 24 22 21 26 25 22 22 21 21 22 23 26 27 28 29 30 31 31 31 32 33 34 36 37 37 37 38 38 39 41 44 46 48 50 52 53 54 54 55 57 59 60 60 57 56 57 58 57 56 55 55 55 57 59 61 64
17 18 20 21 23 23 18 18 19 20 21 19 20 21 20 22 24 25 24 22 21 21 23 27 26 22 18 17 23 26 24 24 25 27 24 19 20 20 19 21 22 23 25 25 26 27 27 28 29 31 31 31 32 33 35 35 35 36 38 41 44 46 48 49 50 51 51 51 53 54 56 57 57 56 55 57 58 58 59 59 60 61 64 66 67 69
17 19 22 22 21 19 15 16 18 19 20 18 18 20 21 22 23 24 24 22 24 24 27 32 27 25 25 19 22 26 23 24 27 27 23 19 20 21 22 24 24 24 24 24 25 25 25 25 24 25 24 23 23 24 24 26 27 30 32 35 38 39 40 40 40 41 42 43 45 47 49 50 52 52 52 54 55 56 57 57 59 63 67 70 73 75
18 18 19 20 18 16 15 16 19 20 19 19 20 20 21 23 23 25 25 25 29 25 25 31 26 25 28 19 20 25 20 22 25 26 25 22 20 23 25 26 26 26 25 24 23 23 22 22 22 21 18 16 16 16 16 18 22 25 27 28 29 30 31 32 33 34 36 38 39 41 44 46 49 51 51 52 53 54 57 58 59 65 70 73 77 79
18 17 18 21 18 16 17 19 20 20 18 19 20 19 21 26 25 25 25 26 30 26 23 28 23 23 27 18 18 23 18 22 27 27 26 23 20 24 27 27 27 26 24 21 21 20 20 20 21 19 15 13 13 13 15 17 20 22 24 25 26 28 30 31 31 32 33 34 35 37 38 41 44 48 49 51 51 52 57 57 58 64 70 73 77 80
19 19 19 21 18 16 19 20 20 20 19 19 20 19 20 24 24 27 29 25 25 24 23 26 22 24 30 23 19 23 20 23 26 26 27 25 23 26 27 26 26 24 22 22 21 21 21 21 21 18 13 11 13 15 17 19 20 22 23 25 27 29 31 33 33 33 34 35 35 35 35 36 39 42 45 48 51 52 53 55 57 60 63 66 72 77
21 20 18 19 17 16 18 18 18 22 21 19 21 18 14 18 22 27 29 22 19 20 22 27 24 26 33 28 20 23 26 27 27 27 30 32 29 28 28 27 26 26 26 26 24 22 22 22 22 19 14 13 16 20 22 23 24 24 24 25 27 29 31 34 35 36 37 38 39 38 37 36 37 39 41 44 49 53 54 56 58 59 60 62 67 74
19 18 17 17 16 16 16 15 17 22 22 19 22 20 19 26 28 28 30 27 24 21 19 24 25 26 29 25 20 23 25 27 29 30 33 35 32 29 30 31 31 33 34 31 26 23 24 24 25 23 19 18 21 25 27 28 29 28 28 28 28 29 31 33 35 37 39 40 41 42 41 40 40 40 41 41 44 49 53 57 59 60 62 63 65 71
17 17 16 15 14 15 15 15 16 20 20 19 23 25 28 35 34 36 40 34 27 22 17 21 27 29 26 21 22 24 22 22 26 31 34 32 30 31 34 37 38 40 38 32 27 27 28 28 29 29 27 25 27 31 33 34 34 34 33 33 32 32 33 33 35 36 37 38 39 41 43 43 44 44 43 43 43 44 48 52 57 60 63 64 65 68
16 15 13 12 12 14 16 17 16 19 22 23 27 28 29 32 31 36 40 34 29 29 24 21 25 29 23 18 22 22 20 21 22 27 31 31 33 37 39 41 41 40 36 31 30 31 32 34 34 34 33 32 33 36 38 37 38 37 36 36 36 36 37 37 38 38 38 39 39 40 42 43 46 47 47 47 46 45 46 47 51 56 61 64 66 67
16 14 14 13 13 14 16 18 19 20 22 25 27 27 28 30 30 34 37 32 33 39 38 29 25 26 20 17 23 24 20 20 20 22 26 30 35 37 38 38 38 39 39 37 37 38 40 42 42 40 39 40 41 42 42 41 39 38 38 39 39 39 39 39 41 41 41 41 41 42 43 44 46 48 49 50 49 48 47 47 49 51 55 62 66 68
15 13 15 15 15 16 17 18 21 20 18 22 25 25 28 30 32 36 36 34 38 43 40 31 24 24 22 19 24 26 22 21 21 22 24 30 34 34 33 35 39 44 43 41 42 43 46 49 49 48 47 48 49 49 48 46 44 43 43 43 44 43 43 43 43 44 43 41 40 41 42 43 45 47 48 49 50 50 49 48 49 49 51 57 65 70
17 16 17 16 14 16 18 19 22 21 19 22 25 27 29 32 37 39 37 41 48 44 35 27 25 27 26 24 25 26 24 24 25 26 27 30 31 31 32 36 43 47 45 44 46 48 50 52 52 52 52 53 54 54 54 54 53 54 54 53 51 50 49 49 48 47 46 44 43 43 43 43 44 47 49 48 49 50 49 49 50 49 48 52 60 67
20 18 18 18 15 16 19 19 20 23 23 22 23 27 28 29 35 37 37 42 45 45 43 34 28 29 30 30 30 28 29 32 33 33 31 30 31 34 36 38 42 45 47 50 52 53 56 57 56 56 55 54 55 55 56 57 59 61 63 63 61 59 59 58 56 53 52 52 52 51 50 48 46 48 52 52 53 53 50 51 52 50 47 46 50 59
22 19 16 18 18 17 17 16 18 22 26 26 25 28 30 30 34 35 36 41 44 51 58 47 33 29 32 35 34 32 35 41 41 37 35 37 39 42 43 44 47 51 56 60 61 63 67 67 66 64 64 64 63 63 62 62 63 64 65 65 65 65 65 64 63 60 60 62 64 62 59 54 49 51 55 56 57 58 56 56 56 55 50 45 43 49
22 21 18 18 19 17 15 16 18 19 23 26 25 29 30 32 38 36 34 39 44 54 64 62 48 30 26 35 39 37 40 43 45 46 47 51 52 53 55 57 61 65 70 74 74 75 76 77 76 74 75 77 78 78 77 76 75 73 73 72 70 70 71 72 71 66 62 63 64 65 61 55 52 53 56 57 57 59 61 63 63 60 57 52 47 44
21 22 22 20 19 15 13 17 19 19 21 24 25 29 31 33 38 39 39 41 43 49 56 62 55 31 25 39 42 40 44 47 53 56 56 58 60 61 65 69 74 78 81 82 79 77 78 79 79 76 76 79 81 81 80 81 82 82 81 80 78 77 76 75 72 65 59 57 56 56 55 55 57 58 58 58 59 59 62 68 70 67 62 58 55 50
21 24 25 23 19 16 16 19 22 21 22 24 26 29 33 36 37 40 46 45 42 44 46 55 55 36 31 43 43 42 47 52 58 59 60 62 64 68 72 76 82 86 85 83 78 76 76 76 75 73 72 74 75 73 71 71 73 74 74 73 73 74 72 70 69 65 61 57 54 53 53 55 60 63 62 61 61 61 62 66 73 74 70 64 60 56
22 25 25 22 19 16 16 20 22 23 24 23 25 30 33 36 37 40 45 45 44 43 43 55 58 37 32 43 43 42 47 50 54 58 62 66 67 73 79 82 85 86 83 80 77 75 74 72 72 70 67 67 66 67 67 66 66 66 66 65 64 65 63 62 63 63 62 59 56 55 56 57 59 62 63 61 60 61 61 64 70 76 76 73 68 63
22 25 26 24 23 19 16 17 19 21 23 21 23 29 33 34 37 41 44 46 48 44 41 55 55 37 36 46 44 43 48 49 54 60 65 70 73 77 81 81 83 83 79 76 74 73 70 69 69 67 64 62 61 62 63 61 61 62 62 61 60 60 59 59 59 58 58 58 57 59 62 65 67 66 66 64 61 61 62 64 69 75 79 79 76 70
24 26 26 26 28 27 25 25 22 22 24 22 21 26 30 32 36 40 43 48 51 46 42 48 50 43 47 51 47 50 56 58 62 66 68 71 74 75 77 78 80 81 79 77 74 70 66 64 64 61 60 60 60 60 58 56 55 54 53 53 52 53 53 52 52 52 52 53 57 63 69 73 77 78 76 73 67 63 64 67 71 77 81 82 80 75
29 28 27 27 29 28 27 25 25 27 29 27 25 25 29 35 38 40 46 50 52 51 47 44 49 57 62 62 63 68 72 71 71 69 69 71 73 75 76 76 79 82 82 77 71 65 61 59 57 53 51 52 53 53 53 52 50 47 45 43 42 44 45 45 48 49 50 52 57 64 69 73 78 81 81 77 70 64 63 68 76 82 83 81 79 79
29 28 28 30 28 26 26 25 26 29 31 29 30 32 33 37 39 40 46 49 51 59 59 52 56 70 75 77 81 82 80 77 73 71 73 76 77 78 75 73 76 80 79 74 65 57 52 48 44 40 40 43 46 48 49 49 47 44 42 41 41 43 44 45 48 49 50 52 54 57 59 62 67 72 74 74 71 69 66 66 75 85 89 86 82 83
26 27 30 31 29 26 27 28 27 29 31 30 33 38 39 41 43 42 45 49 54 64 68 66 71 83 89 88 85 81 80 79 77 77 80 81 77 73 70 68 70 71 67 59 50 41 37 35 33 35 39 42 45 46 45 45 44 43 42 41 41 42 42 42 41 41 42 44 45 45 45 46 49 55 63 68 70 71 68 67 74 83 88 89 88 88
25 30 34 32 29 26 25 27 28 31 32 31 35 44 45 44 45 46 48 53 59 65 70 75 81 87 89 87 83 79 80 80 80 81 81 75 68 61 57 55 52 49 43 36 30 29 29 31 34 38 43 44 44 44 44 44 45 46 48 49 49 48 46 45 44 42 42 41 40 41 40 40 42 45 53 64 71 71 71 73 79 83 85 86 87 89
24 29 34 32 29 23 21 24 27 30 32 33 38 44 42 40 42 46 52 57 62 69 74 78 84 86 83 83 82 79 81 82 81 77 68 56 48 43 39 37 34 31 28 26 29 32 35 40 43 46 49 50 48 48 48 48 50 52 56 58 60 60 59 58 56 52 50 50 49 47 46 46 48 46 48 58 67 69 70 75 79 81 84 87 86 87
29 31 33 33 31 24 19 21 26 28 29 34 41 41 41 45 49 53 61 67 71 80 86 89 93 91 83 81 83 81 81 80 74 63 49 39 35 34 32 31 30 32 35 40 45 49 52 55 57 56 55 53 52 52 53 54 56 58 59 60 61 64 68 71 70 67 66 65 62 58 56 58 60 58 52 54 61 64 65 70 73 74 77 83 86 85
34 32 32 35 34 26 20 22 27 27 26 36 47 49 50 55 57 58 63 68 75 88 97 98 94 87 81 81 82 76 68 64 58 48 38 34 33 33 34 37 41 48 55 59 62 63 63 62 62 63 62 60 61 62 63 65 67 67 66 65 63 64 69 73 75 74 74 74 69 63 60 64 73 73 63 57 58 61 64 66 69 71 71 76 83 84
37 34 35 39 38 32 26 27 29 27 28 39 51 55 57 61 65 67 66 70 81 90 91 90 85 79 76 73 65 56 50 48 45 37 31 31 36 41 45 49 56 62 65 65 66 65 65 65 65 65 66 67 68 70 72 74 76 76 74 72 70 68 70 74 77 76 74 73 71 66 59 63 75 79 73 65 59 59 63 67 70 71 70 74 79 81
38 36 37 40 42 38 34 34 35 33 35 48 55 55 56 59 63 68 66 70 82 85 81 81 78 70 62 53 44 42 40 38 35 30 28 33 42 53 59 62 65 68 70 71 72 71 71 73 72 70 70 72 74 77 81 83 83 83 79 74 72 71 72 76 77 76 75 75 72 68 64 67 73 74 72 70 67 63 63 65 69 72 74 77 79 78
37 38 38 41 44 40 35 38 42 36 38 49 54 52 55 58 64 72 70 67 73 79 79 74 63 51 45 40 36 36 36 35 34 31 31 38 49 59 66 67 69 72 76 80 81 81 81 82 83 82 80 80 82 86 88 89 88 86 80 75 74 75 76 77 78 76 74 71 70 71 70 71 73 71 69 70 72 73 73 71 69 71 77 84 82 78
37 39 39 40 43 42 41 45 44 39 41 50 54 57 65 70 73 79 78 72 71 72 66 55 46 42 40 36 34 35 37 40 38 31 32 43 54 60 63 66 70 72 75 78 81 84 87 87 86 85 83 83 86 89 92 92 90 86 82 77 77 81 82 80 79 77 73 70 73 77 76 75 76 77 77 76 77 79 81 79 74 72 77 85 86 81
35 38 41 42 43 46 50 55 55 54 56 60 63 67 72 73 70 72 74 71 63 55 47 43 45 42 36 34 36 38 42 45 40 34 38 49 55 58 61 65 68 70 72 76 81 85 87 86 82 79 79 81 84 88 90 90 88 85 82 79 78 81 82 77 74 75 76 76 79 82 82 83 84 85 84 83 84 86 88 86 80 76 78 82 85 82
36 40 43 45 49 53 58 64 65 63 63 67 70 70 71 71 67 66 67 62 51 44 43 43 42 37 33 37 39 40 48 57 51 41 44 52 55 57 62 64 64 66 68 73 82 87 88 85 80 76 77 79 83 87 89 90 89 85 83 80 79 82 83 78 74 79 82 82 85 89 91 91 90 89 88 89 90 93 97 95 88 85 84 80 80 80
41 46 48 49 54 58 63 67 65 62 65 70 69 69 70 67 62 65 71 65 51 45 42 38 36 35 35 39 40 41 52 63 59 49 50 55 56 56 60 63 64 65 66 73 83 88 88 84 80 77 77 79 85 90 92 93 92 89 88 87 85 86 85 79 76 81 86 86 88 91 92 92 92 93 93 94 94 96 100 100 96 93 91 84 80 80
40 45 48 51 54 57 63 66 63 63 68 68 66 67 66 62 62 71 75 65 51 43 38 34 36 38 37 40 44 46 48 53 55 54 54 55 57 57 60 64 66 68 73 80 87 90 90 86 82 80 79 83 90 94 95 96 97 96 95 92 89 89 87 80 77 81 85 86 87 87 88 92 97 98 95 93 94 97 99 99 98 98 95 88 83 81
46 47 49 54 57 58 61 64 65 65 65 67 67 64 61 64 72 72 60 48 41 39 36 34 37 40 42 44 47 48 48 49 52 54 55 57 63 67 68 70 72 75 80 86 89 92 92 88 84 83 82 87 94 97 96 98 99 100 98 93 91 92 89 80 77 80 83 85 87 88 90 94 97 97 94 92 95 99 99 97 97 98 95 89 84 80
52 54 57 60 60 60 62 66 74 75 70 69 70 64 60 66 67 55 42 36 34 34 36 37 38 43 47 48 47 48 50 51 53 57 62 67 72 76 77 78 80 83 88 91 92 93 92 90 88 86 86 89 96 98 97 99 100 100 98 94 93 95 89 80 76 79 82 84 86 88 91 94 95 95 95 95 98 100 99 98 98 97 95 91 84 79
51 57 64 65 63 68 73 75 77 79 74 68 64 60 57 53 43 34 32 32 31 33 37 40 41 44 50 54 56 56 57 61 66 71 75 78 81 82 83 84 87 90 92 93 92 92 92 91 88 87 87 90 96 98 97 99 100 100 98 96 96 97 90 78 74 78 79 80 84 88 90 91 93 93 94 97 99 100 99 100 99 98 96 92 85 79
51 54 61 64 62 64 68 67 65 66 63 54 45 42 39 32 26 27 30 30 31 35 40 44 47 51 57 63 68 70 72 77 82 84 85 86 85 86 88 88 90 93 94 94 93 92 91 90 89 87 86 90 96 99 98 99 101 101 99 97 97 98 90 77 72 74 74 76 85 87 85 85 89 92 95 99 99 99 100 100 99 98 98 96 91 84
50 48 52 59 58 53 51 51 50 49 44 36 31 30 28 25 25 28 29 30 33 36 42 50 58 63 69 76 81 83 85 89 90 88 88 88 88 90 92 92 91 93 95 94 92 91 89 88 89 89 88 90 96 99 98 98 100 99 99 98 96 95 88 78 72 70 71 78 86 85 80 82 87 90 95 97 98 100 101 99 98 99 99 95 89 84
44 43 46 51 53 52 50 46 42 38 33 29 28 27 25 24 26 28 28 29 31 36 46 57 66 72 78 84 89 91 91 92 92 89 88 89 91 93 95 95 94 94 95 95 94 93 91 91 90 91 92 93 96 98 98 99 100 98 97 98 96 91 84 77 72 69 70 79 85 82 80 82 85 89 94 96 97 100 101 99 99 100 98 92 86 85
47 45 47 49 50 52 51 43 36 32 27 23 24 24 23 25 27 27 26 28 33 42 51 60 70 79 84 86 91 94 93 91 91 90 89 91 94 96 97 97 97 96 96 96 96 94 94 93 93 94 96 96 98 99 99 99 99 96 94 95 93 87 80 75 71 69 71 78 81 80 81 82 84 89 94 95 97 100 100 98 99 100 99 97 95 95
53 51 51 51 50 49 44 36 31 30 25 22 24 26 25 28 31 29 28 32 40 50 56 60 68 80 88 91 93 93 90 88 89 90 91 93 95 98 99 98 97 97 97 96 95 95 96 96 95 97 98 98 99 100 100 100 98 93 90 90 88 82 76 72 70 69 71 76 78 80 82 82 84 91 96 95 97 100 99 96 98 99 99 100 100 100
54 55 55 54 49 44 37 31 32 36 34 30 29 30 29 31 34 33 34 41 50 57 63 66 68 74 81 89 94 94 90 87 88 90 92 95 98 100 99 99 99 98 97 97 96 96 96 95 95 97 98 98 98 99 99 101 98 90 86 86 85 79 74 70 68 68 70 72 74 78 82 82 82 89 95 94 95 100 99 94 94 96 97 97 99 98
55 59 59 51 42 35 31 29 32 38 37 33 32 33 33 33 36 40 47 57 63 67 72 76 77 77 78 81 89 94 91 87 88 91 93 95 98 99 98 99 100 99 98 99 100 99 97 94 94 96 96 97 98 98 98 101 98 90 85 84 82 78 73 70 69 68 69 69 71 75 80 80 79 85 92 91 91 98 99 93 91 93 94 94 96 95